DW2893 Weather Reports


Display with metric or nautical units.
time (UTC)temp
F
wind
direction
speed
MPH
gust
MPH
rain 1hr
in
rain 24hr
in
rain mn
in
humidity
%
barometer
mb
20260506070805 58 8 5.0 10.0 0.00 0.00 0.00 78 1007.9
20260506070305 58 22 5.0 9.0 0.00 0.00 0.00 78 1007.9
20260506061805 59 7 5.0 13.0 0.00 0.00 0.00 77 1007.9
20260506060306 59 1 6.0 10.0 0.00 0.00 0.00 78 1007.8
20260506051305 61 352 8.0 16.0 0.00 0.00 0.00 79 1007.8
20260506050305 61 4 6.0 14.0 0.00 0.00 0.00 79 1007.6
20260506044305 62 353 7.0 13.0 0.00 0.00 0.00 78 1007.6
20260506043805 62 355 5.0 9.0 0.00 0.00 0.00 79 1007.6
20260506040308 63 6 7.0 14.0 0.00 0.00 0.00 79 1007.1
20260506032805 65 342 9.0 14.0 0.00 0.00 0.00 77 1006.9
20260506030805 67 354 6.0 13.0 0.00 0.00 0.00 77 1006.4
20260506030304 67 341 7.0 12.0 0.00 0.00 0.00 76 1006.4
20260506025804 68 349 8.0 14.0 0.00 0.00 0.00 76 1006.5
20260506023305 69 356 7.0 13.0 0.00 0.00 0.00 75 1005.5
20260506022306 69 345 6.0 13.0 0.00 0.00 0.00 75 1005.2
20260506021804 69 8 5.0 13.0 0.00 0.00 0.00 75 1005.3
20260506021304 70 346 7.0 15.0 0.00 0.00 0.00 75 1005.2
20260506014804 72 4 7.0 14.0 0.00 0.00 0.00 72 1004.8
20260506014308 72 15 6.0 12.0 0.00 0.00 0.00 72 1004.5
20260506013808 73 25 5.0 10.0 0.00 0.00 0.00 72 1004.5
20260506013309 73 354 5.0 9.0 0.00 0.00 0.00 71 1004.7
20260506012308 73 10 3.0 8.0 0.00 0.00 0.00 71 1004.3
20260506011308 73 336 5.0 7.0 0.00 0.00 0.00 70 1004.1
20260506004808 74 345 7.0 12.0 0.00 0.00 0.00 69 1003.7
20260506004308 74 345 7.0 12.0 0.00 0.00 0.00 69 1004.1
20260506002808 75 337 6.0 12.0 0.00 0.00 0.00 68 1003.0
20260506002308 75 9 6.0 14.0 0.00 0.00 0.00 67 1003.0
20260506001308 76 340 7.0 13.0 0.00 0.00 0.00 67 1003.0
20260506000808 77 336 6.0 15.0 0.00 0.00 0.00 67 1003.0
20260505235808 78 330 9.0 18.0 0.00 0.00 0.00 65 1003.0
20260505233808 80 329 9.0 15.0 0.00 0.00 0.00 64 1003.0
20260505231808 83 346 9.0 18.0 0.00 0.00 0.00 60 1002.7
20260505225808 85 347 6.0 10.0 0.00 0.00 0.00 53 1002.2
20260505224808 86 339 9.0 16.0 0.00 0.00 0.00 50 1002.2
20260505224308 87 331 9.0 15.0 0.00 0.00 0.00 49 1002.2
20260505223308 89 328 8.0 14.0 0.00 0.00 0.00 47 1001.8
20260505222808 90 284 6.0 12.0 0.00 0.00 0.00 50 1001.7
20260505221808 91 308 5.0 13.0 0.00 0.00 0.00 51 1001.5
20260505221308 90 243 3.0 7.0 0.00 0.00 0.00 52 1001.5
20260505220308 90 238 2.0 12.0 0.00 0.00 0.00 51 1001.8
20260505215308 91 189 5.0 9.0 0.00 0.00 0.00 53 1001.8
20260505214807 90 220 3.0 12.0 0.00 0.00 0.00 55 1001.8
20260505214307 89 204 3.0 12.0 0.00 0.00 0.00 55 1001.8
20260505213808 90 285 6.0 12.0 0.00 0.00 0.00 54 1001.8
20260505210307 89 222 6.0 12.0 0.00 0.00 0.00 56 1002.2
20260505203307 90 220 6.0 12.0 0.00 0.00 0.00 55 1002.7
20260505201808 89 190 7.0 15.0 0.00 0.00 0.00 59 1002.7
20260505200307 89 219 6.0 12.0 0.00 0.00 0.00 58 1002.6
20260505195307 88 191 6.0 12.0 0.00 0.00 0.00 60 1002.8
20260505193807 87 201 7.0 18.0 0.00 0.00 0.00 61 1002.8
20260505191307 86 188 12.0 20.0 0.00 0.00 0.00 62 1002.8
20260505183807 84 203 10.0 21.0 0.00 0.00 0.00 65 1003.0
20260505183307 84 190 13.0 21.0 0.00 0.00 0.00 65 1003.0
20260505182308 83 176 9.0 20.0 0.00 0.00 0.00 66 1003.0
20260505175807 83 218 10.0 23.0 0.00 0.00 0.00 69 1003.0
20260505175307 83 217 7.0 15.0 0.00 0.00 0.00 69 1003.0
20260505173807 82 194 9.0 18.0 0.00 0.00 0.00 70 1003.2
20260505173307 82 192 10.0 21.0 0.00 0.00 0.00 71 1003.2
20260505172807 81 198 12.0 20.0 0.00 0.00 0.00 71 1003.2
20260505170807 80 184 7.0 20.0 0.00 0.00 0.00 74 1003.3
20260505170307 80 183 13.0 25.0 0.00 0.00 0.00 73 1003.3
20260505165807 80 183 12.0 20.0 0.00 0.00 0.00 73 1003.2
20260505165307 80 183 10.0 21.0 0.00 0.00 0.00 74 1003.2
20260505164307 79 174 10.0 23.0 0.00 0.00 0.00 75 1003.2
20260505163806 79 195 12.0 26.0 0.00 0.00 0.00 75 1003.2
20260505163307 79 173 13.0 28.0 0.00 0.00 0.00 75 1003.2
20260505162806 78 202 12.0 25.0 0.00 0.00 0.00 75 1003.1
20260505162307 78 193 13.0 26.0 0.00 0.00 0.00 75 1003.1
20260505161807 78 183 12.0 26.0 0.00 0.00 0.00 75 1003.1
20260505161307 78 179 12.0 24.0 0.00 0.00 0.00 75 1002.8
20260505160307 78 193 13.0 24.0 0.00 0.00 0.00 76 1002.8
20260505151806 75 187 11.0 26.0 0.00 0.00 0.00 80 1002.8
20260505151306 75 183 12.0 25.0 0.00 0.00 0.00 80 1002.8
20260505150306 75 175 14.0 25.0 0.00 0.00 0.00 79 1002.8
20260505130306 72 180 10.0 18.0 0.00 0.00 0.00 85 1002.4
20260505124806 72 189 14.0 25.0 0.00 0.00 0.00 85 1002.4
20260505124305 71 184 13.0 25.0 0.00 0.00 0.00 85 1002.1
20260505123806 71 209 8.0 20.0 0.00 0.00 0.00 85 1002.1
20260505122306 71 203 11.0 20.0 0.00 0.00 0.00 85 1002.0
20260505120806 72 195 14.0 25.0 0.00 0.00 0.00 84 1001.9
20260505115806 72 200 14.0 26.0 0.00 0.00 0.00 84 1001.8
20260505113806 72 203 13.0 29.0 0.00 0.00 0.00 84 1001.6
20260505111305 72 182 12.0 26.0 0.00 0.00 0.00 84 1001.5
20260505100805 71 181 11.0 20.0 0.00 0.00 0.00 84 1001.8
20260505100305 71 202 13.0 25.0 0.00 0.00 0.00 84 1001.6
20260505095805 71 175 13.0 22.0 0.00 0.00 0.00 84 1001.8
20260505095305 71 191 13.0 24.0 0.00 0.00 0.00 84 1001.8
20260505094806 71 199 12.0 20.0 0.00 0.00 0.00 84 1001.8
20260505094305 71 187 11.0 21.0 0.00 0.00 0.00 84 1002.0
20260505090805 71 192 13.0 25.0 0.00 0.00 0.00 85 1002.2
20260505090305 71 191 12.0 24.0 0.00 0.00 0.00 85 1002.2
20260505085806 71 198 11.0 20.0 0.00 0.00 0.00 84 1002.2
20260505084805 71 174 12.0 24.0 0.00 0.00 0.00 84 1002.1
20260505083805 71 172 9.0 20.0 0.00 0.00 0.00 84 1002.2
20260505083306 71 183 13.0 22.0 0.00 0.00 0.00 84 1002.2
20260505082305 71 184 9.0 17.0 0.00 0.00 0.00 83 1002.4
20260505081305 71 193 12.0 21.0 0.00 0.00 0.00 83 1002.4
20260505080805 71 171 10.0 17.0 0.00 0.00 0.00 83 1002.4
20260505080305 71 174 12.0 20.0 0.00 0.00 0.00 83 1002.6
20260505075805 72 202 10.0 22.0 0.00 0.00 0.00 82 1002.6
20260505075305 72 192 10.0 22.0 0.00 0.00 0.00 82 1002.6
20260505073805 72 185 14.0 24.0 0.00 0.00 0.00 81 1002.7
20260505073305 72 195 14.0 23.0 0.00 0.00 0.00 81 1002.7